This demonstration page uses our WeatherBlox Daily Observations layout. Learn more.

Left ArrowRight Arrow

34.16533, -84.80231

Hourly Observations for March 23, 2017

Temp ( °F °C ) Dew Point ( °F °C ) Humidity (%) Winds ( mph kmh ) Pressure ( in mb ) Visibility ( mi km ) Precip ( " mm )
12:53 am 00:53 Clear 43 6.1 32 0 65 65 Calm 30.28 1025 10 16 0.00 0.00
1:53 am 01:53 Clear 42 5.6 32 0 68 68 Calm 30.29 1026 10 16 0.00 0.00
2:53 am 02:53 Mostly Clear 41 5 34 1.1 76 76 Calm 30.29 1026 10 16 0.00 0.00
3:53 am 03:53 Partly Cloudy 45 7.2 35 1.7 68 68 Calm 30.29 1026 10 16 0.00 0.00
4:53 am 04:53 Mostly Clear 52 11.1 29 -1.7 41 41 E 10 17 30.28 1025 10 16 0.00 0.00
5:53 am 05:53 Mostly Clear 52 11.1 29 -1.7 41 41 ESE 8 13 30.30 1026 10 16 0.00 0.00
6:53 am 06:53 Clear 51 10.6 28 -2.2 41 41 E 8 13 30.32 1027 10 16 0.00 0.00
7:53 am 07:53 Sunny 50 10 28 -2.2 43 43 VRB 5 7 30.35 1028 10 16 0.00 0.00
8:53 am 08:53 Sunny 50 10 27 -2.8 41 41 E 9 15 30.38 1029 10 16 0.00 0.00
9:53 am 09:53 Mostly Cloudy 52 11.1 34 1.1 50 50 ESE 10 17 30.40 1029 10 16 0.00 0.00
10:53 am 10:53 Mostly Cloudy 55 12.8 36 2.2 49 49 SE 15 24 30.42 1030 10 16 0.00 0.00
11:53 am 11:53 Mostly Cloudy 58 14.4 35 1.7 42 42 ENE 12 19 30.43 1030 10 16 0.00 0.00
12:53 pm 12:53 Sunny 60 15.6 36 2.2 41 41 ESE 10 17 30.42 1030 10 16 0.00 0.00
1:53 pm 13:53 Mostly Sunny 62 16.7 36 2.2 38 38 ESE 12 19 30.39 1029 10 16 0.00 0.00
2:53 pm 14:53 Sunny 64 17.8 36 2.2 35 35 SE 10 17 30.37 1028 10 16 0.00 0.00
3:53 pm 15:53 Sunny 65 18.3 36 2.2 34 34 SE 12 19 30.35 1028 10 16 0.00 0.00
4:53 pm 16:53 Partly Cloudy 65 18.3 38 3.3 37 37 SSE 7 11 30.34 1027 10 16 0.00 0.00
5:53 pm 17:53 Sunny 65 18.3 40 4.4 40 40 ESE 9 15 30.32 1027 10 16 0.00 0.00
6:53 pm 18:53 Mostly Sunny 63 17.2 38 3.3 40 40 ESE 10 17 30.33 1027 10 16 0.00 0.00
7:53 pm 19:53 Partly Cloudy 62 16.7 38 3.3 41 41 SE 8 13 30.34 1028 10 16 0.00 0.00
8:53 pm 20:53 Cloudy 60 15.6 37 2.8 42 42 VRB 3 6 30.36 1028 10 16 0.00 0.00
9:53 pm 21:53 Cloudy 60 15.6 36 2.2 41 41 VRB 7 11 30.37 1028 10 16 0.00 0.00
10:53 pm 22:53 Cloudy 60 15.6 37 2.8 42 42 ESE 6 9 30.37 1029 10 16 0.00 0.00
11:53 pm 23:53 Cloudy 60 15.6 38 3.3 44 44 ESE 7 11 30.38 1029 10 16 0.00 0.00

Powered by AerisWeather